TimePDT,TemperatureF,Dew PointF,Humidity,Sea Level PressureIn,VisibilityMPH,Wind Direction,Wind SpeedMPH,Gust SpeedMPH,PrecipitationIn,Events,Conditions,WindDirDegrees,DateUTC
12:53 AM,63.0,30.0,29,29.94,10.0,ESE,5.8,-,N/A,,Clear,120,2013-07-26 07:53:00
1:53 AM,64.9,30.9,28,29.94,10.0,SSE,6.9,-,N/A,,Clear,150,2013-07-26 08:53:00
2:53 AM,66.0,30.0,26,29.95,10.0,ESE,8.1,-,N/A,,Clear,120,2013-07-26 09:53:00
3:53 AM,62.1,30.9,31,29.96,10.0,ESE,6.9,-,N/A,,Clear,120,2013-07-26 10:53:00
4:53 AM,61.0,30.9,32,29.98,10.0,ESE,6.9,-,N/A,,Clear,110,2013-07-26 11:53:00
5:53 AM,59.0,30.9,35,30.00,10.0,SE,6.9,-,N/A,,Clear,140,2013-07-26 12:53:00
6:53 AM,66.0,32.0,28,29.99,10.0,SE,9.2,-,N/A,,Clear,140,2013-07-26 13:53:00
7:53 AM,73.0,32.0,22,30.00,10.0,SE,4.6,-,N/A,,Clear,130,2013-07-26 14:53:00
8:53 AM,80.1,30.0,16,30.01,10.0,Calm,Calm,-,N/A,,Clear,0,2013-07-26 15:53:00
9:53 AM,84.9,37.0,18,30.00,10.0,West,10.4,-,N/A,,Clear,270,2013-07-26 16:53:00
10:53 AM,89.1,37.0,16,29.99,10.0,WNW,10.4,-,N/A,,Clear,290,2013-07-26 17:53:00
11:53 AM,91.0,35.1,14,29.99,10.0,NW,9.2,-,N/A,,Clear,310,2013-07-26 18:53:00
12:53 PM,93.9,35.1,13,29.97,10.0,WNW,8.1,-,N/A,,Clear,290,2013-07-26 19:53:00
1:53 PM,96.1,34.0,11,29.95,10.0,NW,9.2,17.3,N/A,,Clear,320,2013-07-26 20:53:00
2:53 PM,98.1,30.9,9,29.94,10.0,WNW,13.8,-,N/A,,Clear,300,2013-07-26 21:53:00
3:53 PM,96.1,28.0,9,29.92,10.0,WNW,9.2,19.6,N/A,,Clear,300,2013-07-26 22:53:00
4:53 PM,96.1,15.1,5,29.91,10.0,WNW,10.4,17.3,N/A,,Clear,300,2013-07-26 23:53:00
5:53 PM,97.0,25.0,8,29.90,10.0,NW,12.7,-,N/A,,Clear,320,2013-07-27 00:53:00
6:53 PM,96.1,21.0,7,29.88,10.0,WNW,10.4,-,N/A,,Clear,300,2013-07-27 01:53:00
7:53 PM,90.0,25.0,10,29.87,10.0,NNW,6.9,-,N/A,,Clear,340,2013-07-27 02:53:00
8:53 PM,84.9,24.1,11,29.87,10.0,NW,3.5,-,N/A,,Clear,310,2013-07-27 03:53:00
9:53 PM,82.9,43.0,24,29.89,10.0,West,18.4,-,N/A,,Clear,260,2013-07-27 04:53:00
10:53 PM,82.0,44.1,26,29.92,10.0,WSW,15.0,-,N/A,,Clear,240,2013-07-27 05:53:00
11:53 PM,79.0,45.0,30,29.94,10.0,WSW,15.0,-,N/A,,Clear,250,2013-07-27 06:53:00